Weather in La Punta

Argentina     28°22′17″S   64°47′25″W
temp.,
°C
wind,
m/s
gust,
m/s
humid.,
%
clouds,
%
prec.,
mm/h
press.,
hPa
HPBL,
m
22 january, sat
sat2200:00+30nne5144299 0.0 1001458
03:00+30n6164459 0.0 1000720
06:00+28nne5135126 0.0 999623
09:00+30nne8124533 0.0 1002868
12:00+36nne810328 0.0 10011499
15:00+39ne89273 0.0 9992636
18:00+38ne772629 0.0 9972755
21:00+32ne4113979 0.0 999280
23 january, sun
sun2300:00+30nnw3104742 0.0 1002218
03:00+29nnw3851100 0.1 1001210
06:00+25e497298 1.0 1003222
09:00+25sse5679100 2.4 1008536
12:00+27se3467100 0.8 1007636
15:00+33ese3445100 0.8 10051321
18:00+35se443796 0.0 10021284
21:00+29se41058100 0.0 1004377
24 january, mon
mon2400:00+26se4876100 0.9 1007386
03:00+23s3593100 4.3 1008179
06:00+22ssw3497100 15.1 1008194
09:00+23se3495100 15.6 1009309
12:00+25ene4581100 0.1 1009730
15:00+31ne365295 0.2 10061784
18:00+29w456348 0.2 1004263
21:00+27wsw226943 0.2 100419
25 january, tue
tue2500:00+26sse3574100 0.0 1006161
03:00+23ese2892100 2.3 1006372
06:00+23sw1196100 3.5 100780
09:00+23ssw2293100 3.6 1007144
12:00+30sse226475 0.0 1006954
15:00+33ese335275 0.0 10031783
18:00+29wsw226698 1.5 1002212
21:00+27wsw227723 1.5 100234
26 january, wed
wed2600:00+25s3983100 0.0 1005241
03:00+24ssw3593100 1.1 1004156
06:00+23sw2597100 0.6 1005151
09:00+24ssw359295 1.8 1006244
12:00+28se447591 0.1 1007877
15:00+30sse3363100 0.2 10061175
18:00+28ssw357366 2.4 1005307
21:00+23sw4890100 4.1 1008208